Location: *
(48.7358°N, 0.3111°E)
Time: 13:15:40
(UTC+00:00)

Cosmos 1726 - Pass Details

Date: 22 October 2019
Orbit: 483 x 500 km, 82.5° (Epoch: 11 November)

Event Time Altitude Azimuth Distance (km) Brightness Sun altitude
Rises 04:18:45 0° 354° (N) 2,565 5.8 -22.1°
Reaches altitude 10° 04:20:55 10° 0° (N) 1,681 4.9 -21.7°
Maximum altitude 04:24:29 49° 77° (ENE) 638 3.0 -21.2°
Drops below altitude 10° 04:28:03 10° 153° (SSE) 1,675 5.0 -20.6°
Sets 04:30:12 0° 159° (SSE) 2,554 5.9 -20.2°
